Regional Weather Roundup
Issued by NWS State College, PA

Home | Current Version | Previous Version | Text Only | Print | Product List | Glossary Off
Versions: 1 2 3 4 5 6 7 8 9 10 11 12 13 14 15 16 17 18 19 20 21 22 23 24 25 26 27 28 29 30 31 32 33 34 35 36 37 38 39 40 41 42 43 44 45 46 47 48 49 50

727
ASUS41 KCTP 281003
RWRCTP

REGIONAL WEATHER ROUNDUP
NATIONAL WEATHER SERVICE STATE COLLEGE PA
600 AM EDT SUN AUG 28 2016

Note: "fair" indicates few or no clouds below 12,000 feet with no
significant weather and/or obstructions to visibility.

* = STATION THAT DOES NOT REPORT PRECIPITATION /E.G. RAIN...SNOW...ETC/
    THUNDER OR FOG.

PAZ002>004-007>009-013>016-020>023-029>032-281100-
WESTERN PENNSYLVANIA

CITY           SKY/WX    TMP DP  RH WIND       PRES   REMARKS
ERIE           PTCLDY    73  67  81 S5        30.16R
MEADVILLE      CLOUDY    69  65  86 CALM      30.21R
FRANKLIN*        N/A     66  63  88 SE3       30.21S
NEW CASTLE     FAIR      68  67  96 CALM      30.19R FOG
BEAVER COUNTY  NOT AVBL
BUTLER*        NOT AVBL
PITTSBURGH INT CLOUDY    72  68  87 CALM      30.18S
PITTSBURGH     PTCLDY    72  68  87 CALM      30.18S FOG
INDIANA*       CLEAR     70  66  88 CALM      30.24R
LATROBE        PTCLDY    68  68 100 CALM      30.21R
WASHINGTON CO*   N/A     66  64  94 CALM      30.20R VSB 3/4
$$

PAZ004>006-010>012-017>019-024>028-033>037-041-042-045-046-049>053-281100-
CENTRAL PENNSYLVANIA

CITY           SKY/WX    TMP DP  RH WIND       PRES   REMARKS
BRADFORD       PTCLDY    69  65  86 SE6       30.25R
DUBOIS         CLEAR     69  63  81 CALM      30.23R
CLEARFIELD     PTCLDY    63  63 100 N7        30.24S FOG
JOHNSTOWN      CLEAR     69  63  81 S9        30.27S
ALTOONA        CLEAR     68  63  84 S7        30.26R
STATE COLLEGE  CLEAR     66  64  94 CALM      30.25S
WILLIAMSPORT   CLEAR     66  62  87 CALM      30.23R
SELINSGROVE    CLEAR     62  62 100 CALM      30.25R FOG
FT INDIANTOWN  CLEAR     63  63 100 CALM      30.26R
CAPITAL CITY   CLEAR     69  65  86 CALM      30.25R
HARRISBURG     CLEAR     70  68  93 CALM      30.24R
YORK           CLEAR     63  62  97 CALM      30.25R FOG
$$

PAZ038>040-043-044-047-048-054-055-060>062-067>071-281100-
EASTERN PENNSYLVANIA

CITY           SKY/WX    TMP DP  RH WIND       PRES   REMARKS
SCRANTON       CLEAR     63  59  87 S5        30.26R
MOUNT POCONO   CLEAR     56  53  90 CALM      30.30R
ALLENTOWN      CLEAR     62  59  90 CALM      30.26R
QUAKERTOWN*    SUNNY     59  57  94 CALM      30.27R
READING        CLEAR     66  62  87 CALM      30.24R
LANCASTER      CLEAR     67  66  97 N3        30.25R
COATESVILLE    SUNNY     64  63  94 CALM      30.27R
POTTSTOWN      CLEAR     62  61  96 CALM      30.27R
BLUE BELL      CLEAR     59  59 100 CALM      30.24R
DOYLESTOWN     CLEAR     65  63  93 NE3       30.25R
WILLOW GROVE   NOT AVBL
NORTH PHILA    PTCLDY    67  65  93 CALM      30.25R
PHILADELPHIA   PTCLDY    70  68  93 NE3       30.24R
$$




USA.gov is the U.S. government's official web portal to all federal, state and local government web resources and services.